CST,Max TemperatureF,Mean TemperatureF,Min TemperatureF,Max Dew PointF,MeanDew PointF,Min DewpointF,Max Humidity, Mean Humidity, Min Humidity, Max Sea Level PressureIn, Mean Sea Level PressureIn, Min Sea Level PressureIn, Max VisibilityMiles, Mean VisibilityMiles, Min VisibilityMiles, Max Wind SpeedMPH, Mean Wind SpeedMPH, Max Gust SpeedMPH,PrecipitationIn, CloudCover, Events, WindDirDegrees
2013-12-1,62,50,37,39,36,33,89,70,37,30.10,30.03,29.92,10,10,10,10,5,,0.00,0,,353
2013-12-2,66,52,37,39,34,30,82,60,25,29.89,29.74,29.60,10,10,9,13,7,,0.00,0,,235
2013-12-3,68,52,37,42,38,34,89,64,35,29.59,29.52,29.47,10,10,10,16,8,,0.00,0,,175
2013-12-4,50,39,27,34,25,9,83,64,47,30.11,29.79,29.47,10,10,7,30,18,36,0.00,2,,347
2013-12-5,26,22,17,11,7,3,77,56,44,30.34,30.25,30.12,10,8,2,30,23,37,0.00,5,Snow,6
2013-12-6,21,16,12,12,8,2,84,68,48,30.63,30.41,30.23,10,8,2,21,17,28,0.00,5,Snow,9
2013-12-7,19,13,7,10,4,-1,73,64,54,30.67,30.49,30.25,10,10,10,15,10,,0.00,5,,51
2013-12-8,28,22,17,23,16,11,93,84,74,30.25,30.09,29.90,10,7,2,18,10,24,0.00,6,Rain-Snow,165
2013-12-9,24,17,10,20,13,7,88,76,63,30.47,30.34,30.16,10,10,8,17,10,,0.00,5,,3
2013-12-10,37,24,10,23,16,4,81,68,48,30.46,30.34,30.19,10,10,10,20,10,,0.00,0,,199
2013-12-11,39,29,19,23,19,13,84,67,45,30.65,30.50,30.21,10,10,10,25,13,31,0.00,0,,25
2013-12-12,37,28,19,30,21,13,78,69,56,30.62,30.44,30.16,10,10,9,24,11,31,0.00,1,,189
2013-12-13,52,44,37,40,35,29,93,77,63,30.13,29.88,29.71,10,9,6,29,19,34,0.03,4,Rain,192
2013-12-14,46,36,26,29,23,18,86,69,33,30.33,30.17,29.88,10,9,5,28,18,36,0.00,3,,333
2013-12-15,59,44,28,29,25,20,78,54,28,30.30,30.22,30.15,10,10,10,18,11,,0.00,0,,227
2013-12-16,66,48,30,31,26,22,73,51,19,30.20,30.15,30.11,10,10,10,12,7,,0.00,0,,223
2013-12-17,62,50,37,27,25,23,62,45,23,30.33,30.27,30.18,10,10,10,18,10,,0.00,0,,32
2013-12-18,66,50,33,41,33,26,78,56,30,30.24,30.01,29.79,10,10,10,28,13,34,0.00,0,,184
2013-12-19,64,55,46,47,45,41,90,70,43,29.77,29.66,29.58,10,10,10,28,20,34,0.00,0,,188
2013-12-20,50,38,25,45,23,14,93,74,54,30.03,29.87,29.66,10,9,6,29,16,36,0.25,6,Rain,5
2013-12-21,28,27,25,27,25,21,93,88,80,29.88,29.70,29.57,10,6,1,20,12,,0.20,8,Rain-Snow,358
2013-12-22,34,28,23,25,21,18,88,79,67,30.39,30.20,29.88,10,10,10,18,13,,0.00,1,,337
2013-12-23,30,27,24,27,24,22,100,89,80,30.59,30.49,30.37,10,6,2,14,9,,0.00,5,,97
2013-12-24,33,30,26,32,27,24,100,95,92,30.54,30.30,30.11,4,1,0,25,13,31,0.00,7,Fog-Rain-Snow,166
2013-12-25,48,37,26,33,28,25,100,82,46,30.47,30.39,30.27,10,7,0,18,12,,0.00,1,Fog,351
2013-12-26,52,40,28,31,26,22,82,65,38,30.43,30.37,30.28,10,10,10,16,10,,0.00,0,,222
2013-12-27,55,42,30,33,29,24,79,63,40,30.40,30.34,30.27,10,10,10,14,10,,0.00,0,,209
2013-12-28,55,42,28,43,33,24,97,76,47,30.25,30.04,29.90,10,10,9,21,11,26,0.00,0,,187
2013-12-29,43,30,18,40,20,10,96,72,56,30.37,30.20,29.90,10,10,8,34,19,41,0.00,4,Rain,359
2013-12-30,43,28,14,22,16,10,84,65,38,30.43,30.33,30.27,10,10,10,14,4,,0.00,0,,219
2013-12-31,52,40,27,28,25,20,76,59,37,30.40,30.24,30.05,10,10,10,23,14,31,0.00,0,,197